Weather in Azamat-Yurt

Russia / Chechen Republic     43°25′07″N   46°17′09″E
temp.,
°C
wind,
m/s
gust,
m/s
humid.,
%
clouds,
%
prec.,
mm/h
press.,
hPa
HPBL,
m
5 march, fri
fri500:00+3e12710 0.0 102322
03:00+2se12760 0.0 102222
06:00+1e12790 0.0 102022
09:00+5ne23590 0.0 1020269
12:00+10ene22390 0.0 1018778
15:00+12ese22340 0.0 1017913
18:00+9e23510 0.0 101926
21:00+6ese33800 0.0 102069
6 march, sat
sat600:00+5ese23800 0.0 101939
03:00+4ese22830 0.0 102022
06:00+3se12800 0.0 102022
09:00+8ese114711 0.0 1018199
12:00+15ese35310 0.0 1016549
15:00+17e56290 0.0 1014591
18:00+10e48501 0.0 1014168
21:00+7ese346734 0.0 1013104
7 march, sun
sun700:00+7w126894 0.0 101222
03:00+6wnw586497 0.0 1013190
06:00+5nw9136698 0.0 10181182
09:00+4wnw8115799 0.1 10221578
12:00+5nw8103995 0.0 10221666
15:00+5wnw573297 0.1 10221322
18:00+4nw243699 0.0 1023388
21:00+2ne224683 0.0 102436
8 march, mon
mon800:000e235329 0.0 102357
03:00−1e225814 0.0 102429
06:00−1ese12590 0.0 102323
09:00+3e22470 0.0 1022446
12:00+7ene45350 0.0 10201517
15:00+8e664326 0.0 10171502
18:00+4ene585687 0.0 1017489
21:00+3ne357194 0.0 1018253
9 march, tue
tue900:00+2ne1278100 0.0 1017118
03:00+2nw0181100 0.0 101727
06:00+2nw1281100 0.0 101826
09:00+5nnw116194 0.0 1018404
12:00+8ne114013 0.0 10171249
15:00+9ne213533 0.0 10161645
18:00+7ene22407 0.0 101756
21:00+4ese22608 0.0 101930